Temp
-14 -14 -14 -14 -14 -14 -14 -14 -14 -14 -14 -14 -14 -14 -14 -14 -14 -14 -14 -14 -14 -14 -14 -14 -14 -14 -14 -14 -14 -14 -14 -14 -14 -14 -14 -14 -14 -14 -15 -15 -15 -15 -15 -15 -15 -15 -15 -15 -15 -15 -15 -15 -15 -15 -15 -15 -15 -15 -15 -16 -16 -16 -16 -16 -16 -16 -16 -16 -16 -16 -16 -16 -16 -16
-14 -14 -14 -14 -14 -14 -14 -14 -14 -14 -14 -14 -14 -14 -14 -14 -14 -14 -14 -14 -14 -14 -14 -14 -14 -14 -14 -14 -14 -14 -14 -14 -14 -14 -14 -15 -15 -15 -15 -15 -15 -15 -15 -15 -15 -15 -15 -15 -15 -15 -15 -15 -15 -15 -15 -15 -16 -16 -16 -16 -16 -16 -16 -16 -16 -16 -16 -16 -16 -16 -16 -16 -16 -16
-14 -14 -14 -14 -14 -14 -14 -14 -14 -14 -14 -14 -14 -14 -14 -14 -14 -14 -14 -14 -14 -14 -14 -14 -14 -14 -14 -14 -14 -14 -14 -15 -15 -15 -15 -15 -15 -15 -15 -15 -15 -15 -15 -15 -15 -15 -15 -15 -15 -15 -15 -15 -15 -15 -16 -16 -16 -16 -16 -16 -16 -16 -16 -16 -16 -16 -16 -16 -16 -16 -17 -17 -17 -17
-14 -14 -14 -14 -14 -14 -14 -14 -14 -14 -14 -15 -15 -15 -15 -15 -15 -15 -15 -14 -14 -14 -15 -14 -14 -14 -15 -15 -15 -15 -15 -15 -15 -15 -15 -15 -15 -15 -15 -15 -15 -15 -15 -15 -15 -15 -15 -15 -15 -15 -15 -15 -16 -16 -16 -16 -16 -16 -16 -16 -17 -17 -17 -16 -16 -16 -16 -16 -17 -17 -17 -17 -17 -17
-15 -14 -14 -14 -14 -14 -14 -14 -14 -14 -15 -15 -15 -15 -15 -15 -15 -15 -15 -15 -14 -15 -15 -15 -15 -15 -15 -15 -15 -15 -15 -15 -15 -15 -15 -15 -15 -15 -15 -15 -15 -15 -15 -15 -15 -15 -15 -15 -15 -15 -16 -16 -16 -16 -16 -16 -16 -17 -17 -17 -17 -17 -17 -17 -17 -17 -17 -17 -17 -17 -17 -17 -17 -17
-15 -14 -14 -14 -14 -14 -14 -14 -14 -14 -15 -15 -15 -15 -15 -15 -15 -15 -15 -15 -15 -15 -15 -15 -15 -15 -15 -15 -15 -15 -15 -15 -15 -16 -16 -16 -16 -16 -16 -16 -16 -16 -16 -16 -16 -16 -16 -16 -16 -16 -16 -16 -16 -16 -16 -17 -17 -17 -17 -17 -17 -17 -17 -17 -17 -17 -17 -17 -17 -17 -17 -17 -17 -17
-15 -14 -14 -14 -14 -14 -14 -14 -15 -15 -15 -15 -15 -15 -15 -15 -15 -15 -15 -15 -15 -15 -15 -15 -15 -15 -15 -15 -15 -15 -16 -16 -16 -16 -16 -16 -16 -16 -16 -16 -16 -16 -16 -16 -16 -16 -16 -16 -16 -16 -16 -17 -17 -17 -17 -17 -17 -17 -17 -17 -17 -17 -17 -17 -17 -17 -17 -17 -17 -17 -17 -17 -17 -17
-15 -15 -14 -14 -14 -14 -14 -15 -15 -15 -15 -15 -15 -15 -15 -15 -15 -15 -15 -15 -15 -15 -15 -15 -15 -15 -15 -15 -16 -16 -16 -16 -16 -16 -16 -16 -16 -16 -16 -16 -16 -16 -16 -16 -16 -17 -17 -17 -17 -17 -17 -17 -17 -17 -17 -17 -17 -17 -17 -17 -17 -17 -17 -17 -17 -17 -17 -17 -17 -17 -17 -17 -17 -17
-15 -15 -15 -15 -15 -15 -15 -15 -15 -15 -15 -15 -15 -15 -15 -15 -15 -15 -15 -15 -15 -15 -15 -15 -16 -16 -16 -16 -16 -16 -16 -16 -16 -16 -16 -16 -16 -16 -16 -16 -16 -16 -16 -16 -16 -16 -17 -17 -17 -17 -17 -17 -17 -17 -17 -17 -17 -17 -17 -17 -17 -17 -17 -17 -17 -18 -18 -18 -18 -18 -18 -18 -18 -18
-15 -15 -15 -15 -15 -15 -15 -15 -15 -15 -15 -15 -15 -15 -16 -16 -16 -16 -16 -16 -16 -16 -16 -16 -16 -16 -16 -16 -16 -16 -16 -16 -16 -16 -16 -16 -16 -17 -17 -16 -16 -16 -16 -16 -17 -17 -17 -17 -17 -17 -17 -17 -17 -17 -17 -18 -18 -17 -17 -17 -18 -18 -18 -18 -18 -18 -18 -18 -18 -18 -18 -18 -18 -18
-15 -15 -15 -15 -15 -15 -15 -15 -15 -15 -15 -15 -16 -16 -16 -16 -16 -16 -16 -16 -16 -16 -16 -16 -16 -16 -16 -16 -16 -16 -16 -16 -16 -16 -16 -17 -17 -17 -17 -17 -17 -17 -17 -17 -17 -17 -17 -17 -17 -17 -17 -18 -18 -18 -18 -18 -18 -18 -18 -18 -18 -18 -18 -18 -18 -18 -18 -18 -18 -18 -18 -18 -18 -18
-15 -15 -15 -15 -15 -16 -16 -16 -16 -16 -16 -16 -16 -16 -16 -16 -16 -16 -16 -16 -16 -16 -16 -16 -16 -16 -16 -16 -16 -16 -16 -16 -16 -16 -17 -17 -17 -17 -17 -17 -17 -17 -17 -17 -17 -17 -17 -17 -18 -18 -18 -18 -18 -18 -18 -18 -18 -18 -18 -18 -18 -18 -18 -18 -18 -18 -18 -18 -18 -18 -18 -18 -18 -18
-16 -15 -15 -15 -15 -16 -16 -16 -16 -16 -16 -16 -16 -16 -16 -16 -16 -16 -16 -16 -16 -16 -16 -16 -16 -16 -16 -16 -16 -16 -17 -17 -17 -17 -17 -17 -17 -17 -17 -17 -17 -17 -17 -18 -18 -18 -18 -17 -18 -18 -18 -18 -18 -18 -18 -18 -18 -18 -18 -18 -18 -18 -18 -18 -18 -18 -18 -18 -18 -18 -18 -18 -18 -18
-16 -15 -15 -15 -15 -16 -16 -16 -16 -16 -16 -16 -16 -16 -16 -16 -16 -16 -16 -16 -16 -16 -16 -16 -16 -16 -16 -16 -16 -17 -17 -17 -17 -17 -17 -17 -17 -17 -17 -18 -18 -17 -17 -18 -18 -18 -18 -18 -18 -18 -18 -18 -18 -18 -18 -18 -18 -18 -18 -18 -18 -18 -18 -18 -18 -18 -18 -18 -18 -18 -19 -19 -19 -19
-16 -16 -15 -15 -15 -16 -16 -16 -16 -16 -16 -16 -16 -16 -16 -16 -16 -16 -16 -16 -16 -16 -16 -17 -17 -17 -17 -17 -17 -17 -17 -17 -17 -17 -17 -17 -17 -18 -18 -18 -18 -18 -18 -17 -18 -18 -18 -18 -18 -18 -18 -18 -18 -18 -18 -18 -18 -18 -18 -18 -18 -18 -18 -18 -18 -18 -18 -19 -19 -19 -19 -19 -19 -19
-16 -16 -16 -16 -16 -16 -16 -16 -16 -16 -16 -16 -16 -16 -16 -16 -16 -16 -16 -16 -16 -16 -16 -17 -17 -17 -17 -18 -18 -18 -18 -18 -18 -18 -18 -18 -18 -18 -18 -18 -19 -18 -18 -18 -18 -18 -18 -18 -18 -18 -18 -18 -18 -18 -18 -18 -18 -18 -18 -18 -18 -18 -18 -18 -19 -19 -19 -19 -19 -19 -19 -19 -19 -19
-16 -16 -16 -16 -16 -16 -16 -16 -16 -16 -16 -16 -16 -16 -16 -17 -17 -17 -17 -17 -17 -16 -17 -17 -17 -17 -18 -18 -18 -18 -18 -18 -18 -18 -18 -18 -18 -18 -18 -18 -18 -18 -18 -18 -18 -18 -18 -19 -18 -18 -18 -18 -18 -18 -18 -18 -18 -18 -18 -18 -18 -18 -19 -19 -19 -19 -19 -19 -19 -19 -19 -19 -19 -19
-16 -16 -16 -16 -16 -16 -16 -16 -16 -16 -16 -16 -16 -17 -17 -17 -17 -17 -17 -17 -17 -17 -17 -17 -17 -18 -18 -18 -18 -18 -18 -18 -18 -18 -18 -18 -18 -18 -18 -18 -18 -18 -18 -18 -18 -18 -18 -18 -18 -18 -18 -18 -18 -18 -18 -18 -18 -18 -18 -18 -18 -19 -19 -19 -19 -19 -19 -19 -19 -19 -19 -19 -20 -20
-16 -17 -17 -17 -17 -17 -17 -16 -16 -16 -16 -17 -17 -17 -17 -17 -17 -17 -17 -17 -17 -18 -18 -18 -18 -18 -18 -18 -18 -18 -18 -18 -18 -18 -18 -18 -18 -18 -18 -18 -18 -18 -18 -18 -18 -18 -18 -18 -18 -18 -18 -18 -18 -18 -18 -18 -19 -19 -18 -18 -18 -19 -19 -19 -19 -19 -19 -19 -19 -20 -20 -20 -20 -20
-17 -17 -17 -17 -17 -17 -16 -16 -16 -17 -17 -17 -17 -17 -17 -17 -17 -18 -18 -18 -18 -18 -18 -18 -18 -18 -18 -18 -18 -18 -18 -18 -18 -18 -18 -18 -18 -18 -18 -18 -18 -18 -18 -18 -18 -18 -18 -18 -18 -18 -18 -18 -19 -19 -19 -19 -19 -19 -19 -19 -19 -19 -19 -19 -19 -20 -20 -20 -20 -20 -20 -20 -20 -21
-17 -17 -17 -17 -17 -17 -17 -16 -17 -17 -17 -17 -17 -17 -17 -18 -18 -18 -18 -18 -18 -18 -18 -18 -18 -18 -18 -18 -18 -18 -18 -18 -18 -18 -18 -18 -18 -18 -18 -18 -18 -18 -18 -18 -18 -18 -18 -18 -18 -18 -18 -18 -19 -19 -19 -19 -19 -19 -20 -20 -20 -20 -20 -20 -20 -20 -20 -20 -20 -21 -21 -21 -21 -21
-17 -17 -17 -17 -17 -17 -17 -17 -17 -17 -18 -18 -18 -18 -18 -18 -18 -18 -18 -18 -18 -18 -18 -18 -18 -18 -18 -18 -18 -18 -18 -18 -18 -18 -18 -18 -18 -18 -18 -18 -18 -18 -18 -18 -18 -18 -18 -18 -18 -18 -19 -19 -19 -19 -19 -19 -20 -20 -20 -20 -21 -21 -21 -21 -21 -21 -21 -21 -21 -22 -22 -22 -21 -21
-17 -17 -17 -17 -17 -17 -17 -17 -18 -18 -18 -18 -18 -18 -18 -18 -18 -18 -18 -18 -18 -18 -18 -18 -18 -18 -18 -18 -18 -18 -18 -18 -18 -18 -18 -18 -18 -18 -18 -18 -19 -19 -19 -19 -19 -19 -19 -19 -19 -18 -18 -19 -19 -19 -19 -20 -20 -20 -20 -20 -21 -21 -21 -21 -21 -21 -22 -22 -22 -22 -22 -22 -22 -22
-17 -17 -17 -17 -17 -17 -17 -17 -18 -18 -18 -18 -18 -18 -18 -18 -18 -18 -18 -18 -18 -18 -18 -18 -18 -18 -18 -18 -18 -18 -18 -18 -18 -18 -18 -18 -18 -19 -19 -19 -19 -19 -19 -19 -19 -19 -19 -19 -19 -18 -18 -18 -18 -19 -19 -20 -20 -20 -21 -21 -21 -21 -22 -22 -22 -22 -22 -22 -22 -22 -23 -23 -23 -23
-17 -17 -17 -18 -18 -18 -18 -18 -18 -18 -18 -18 -18 -18 -18 -18 -18 -18 -18 -18 -18 -18 -18 -18 -18 -18 -18 -18 -18 -18 -18 -19 -19 -19 -19 -19 -19 -19 -19 -19 -19 -19 -19 -19 -19 -19 -19 -19 -19 -19 -19 -19 -19 -19 -19 -20 -20 -21 -21 -21 -22 -22 -22 -22 -22 -22 -23 -23 -23 -23 -23 -23 -23 -24
-17 -18 -18 -18 -18 -18 -18 -18 -18 -18 -18 -18 -18 -18 -18 -18 -18 -18 -18 -18 -18 -18 -19 -19 -19 -19 -19 -19 -19 -19 -19 -19 -19 -19 -19 -19 -19 -19 -19 -19 -19 -19 -19 -19 -19 -19 -19 -19 -19 -19 -20 -20 -20 -20 -20 -21 -21 -21 -22 -22 -22 -22 -23 -23 -23 -23 -23 -23 -23 -23 -24 -24 -24 -24
-18 -18 -18 -18 -18 -18 -18 -18 -18 -18 -18 -18 -18 -18 -18 -18 -18 -18 -19 -19 -19 -19 -19 -19 -19 -19 -19 -19 -19 -19 -19 -19 -19 -19 -19 -19 -19 -19 -19 -19 -19 -19 -19 -19 -19 -19 -19 -19 -20 -20 -20 -20 -21 -21 -21 -22 -22 -22 -23 -23 -23 -23 -23 -24 -24 -24 -24 -24 -24 -24 -24 -24 -24 -24
-18 -18 -18 -18 -18 -19 -19 -19 -18 -18 -19 -19 -19 -19 -19 -19 -19 -19 -19 -19 -19 -19 -19 -19 -19 -19 -19 -19 -19 -19 -19 -19 -19 -19 -19 -19 -19 -19 -19 -19 -19 -19 -19 -19 -19 -20 -20 -20 -20 -21 -21 -21 -22 -22 -23 -23 -23 -23 -24 -24 -24 -24 -24 -24 -25 -25 -25 -25 -25 -25 -25 -25 -25 -25
-18 -18 -18 -18 -19 -19 -19 -19 -19 -19 -19 -19 -19 -19 -19 -19 -19 -19 -19 -19 -19 -19 -19 -19 -19 -19 -19 -19 -19 -19 -19 -19 -19 -19 -19 -19 -19 -19 -19 -19 -19 -20 -20 -20 -20 -20 -21 -21 -21 -22 -22 -23 -23 -23 -24 -24 -24 -24 -25 -25 -25 -25 -25 -25 -25 -25 -25 -25 -25 -25 -25 -25 -25 -25
-19 -19 -19 -19 -19 -19 -19 -19 -19 -19 -19 -19 -19 -19 -19 -19 -19 -19 -19 -19 -19 -19 -19 -19 -19 -19 -19 -19 -19 -19 -19 -19 -19 -19 -19 -19 -19 -19 -20 -20 -20 -20 -20 -21 -21 -21 -22 -22 -23 -23 -24 -24 -24 -24 -25 -25 -25 -25 -25 -25 -25 -25 -25 -25 -25 -25 -25 -25 -25 -25 -25 -25 -25 -25
-19 -19 -19 -19 -19 -19 -19 -19 -19 -19 -19 -19 -19 -19 -19 -19 -19 -19 -19 -19 -19 -19 -19 -19 -19 -19 -19 -19 -19 -19 -19 -19 -19 -19 -19 -19 -19 -20 -20 -20 -21 -21 -21 -22 -22 -23 -23 -23 -24 -24 -24 -25 -25 -25 -25 -25 -25 -25 -25 -25 -25 -25 -25 -25 -25 -26 -26 -26 -26 -26 -26 -26 -26 -26
-19 -19 -19 -19 -19 -19 -19 -19 -19 -19 -19 -19 -20 -20 -20 -20 -20 -19 -19 -19 -19 -19 -19 -19 -19 -19 -19 -19 -19 -19 -19 -19 -19 -19 -20 -20 -20 -20 -21 -21 -21 -22 -22 -23 -23 -24 -24 -24 -24 -25 -25 -25 -25 -25 -25 -25 -25 -25 -26 -26 -26 -26 -26 -26 -26 -26 -26 -26 -26 -26 -26 -26 -26 -26
-19 -19 -19 -19 -19 -19 -19 -19 -19 -20 -20 -20 -20 -20 -20 -20 -20 -20 -20 -19 -19 -19 -19 -19 -19 -19 -19 -19 -19 -19 -19 -20 -20 -20 -20 -20 -21 -21 -22 -22 -23 -23 -23 -24 -24 -24 -24 -25 -25 -25 -25 -25 -25 -25 -26 -26 -26 -26 -26 -26 -26 -26 -26 -26 -26 -26 -26 -26 -26 -26 -26 -26 -26 -26
-19 -19 -19 -19 -19 -20 -20 -20 -20 -20 -20 -20 -20 -20 -20 -20 -20 -20 -20 -20 -20 -20 -20 -20 -20 -20 -20 -20 -20 -20 -20 -20 -20 -21 -21 -21 -22 -22 -23 -23 -23 -24 -24 -24 -24 -25 -25 -25 -25 -25 -25 -26 -26 -26 -26 -26 -26 -26 -26 -26 -26 -26 -26 -26 -27 -27 -27 -27 -27 -27 -27 -27 -27 -27
-19 -20 -20 -20 -20 -20 -20 -20 -20 -20 -20 -20 -20 -20 -20 -20 -20 -20 -20 -20 -20 -20 -20 -20 -20 -20 -20 -20 -20 -20 -21 -21 -21 -22 -22 -22 -23 -23 -23 -24 -24 -24 -24 -25 -25 -25 -25 -25 -26 -26 -26 -26 -26 -26 -26 -26 -26 -26 -27 -27 -27 -27 -27 -27 -27 -27 -27 -27 -27 -28 -28 -28 -28 -28
-20 -20 -20 -20 -20 -20 -20 -20 -20 -20 -20 -20 -20 -20 -20 -20 -20 -20 -20 -20 -20 -20 -20 -20 -20 -20 -21 -21 -21 -21 -22 -22 -22 -22 -23 -23 -23 -24 -24 -24 -24 -25 -25 -25 -25 -25 -26 -26 -26 -26 -26 -26 -26 -26 -27 -27 -27 -27 -27 -27 -28 -28 -28 -28 -28 -28 -28 -28 -28 -29 -29 -29 -29 -29
-20 -20 -20 -20 -20 -20 -20 -20 -20 -20 -20 -20 -20 -20 -20 -20 -20 -20 -20 -20 -21 -21 -21 -21 -21 -21 -21 -22 -22 -22 -22 -23 -23 -23 -23 -24 -24 -24 -24 -25 -25 -25 -25 -26 -26 -26 -26 -26 -26 -26 -26 -26 -27 -27 -27 -27 -28 -28 -28 -28 -28 -29 -29 -29 -29 -29 -29 -29 -29 -29 -29 -29 -29 -29
-21 -21 -21 -21 -21 -21 -21 -21 -21 -21 -21 -21 -21 -21 -21 -21 -21 -21 -21 -21 -21 -21 -22 -22 -22 -22 -22 -23 -23 -23 -23 -23 -24 -24 -24 -24 -25 -25 -25 -25 -26 -26 -26 -26 -26 -26 -26 -26 -26 -26 -27 -27 -27 -28 -28 -28 -28 -28 -28 -29 -29 -29 -29 -29 -29 -29 -29 -29 -29 -29 -29 -29 -29 -29
-21 -21 -21 -21 -21 -21 -21 -21 -21 -21 -21 -21 -21 -21 -21 -21 -21 -21 -22 -22 -22 -22 -22 -22 -23 -23 -23 -23 -24 -24 -24 -24 -24 -25 -25 -25 -25 -25 -26 -26 -26 -26 -26 -26 -26 -26 -26 -26 -27 -27 -27 -28 -28 -28 -28 -28 -29 -29 -29 -29 -30 -30 -30 -30 -30 -29 -29 -29 -29 -29 -29 -29 -29 -29
-21 -21 -21 -21 -21 -21 -21 -21 -21 -21 -21 -21 -21 -22 -22 -22 -22 -22 -22 -22 -23 -23 -23 -23 -23 -24 -24 -24 -24 -25 -25 -25 -25 -25 -25 -26 -26 -26 -26 -26 -26 -26 -26 -26 -26 -27 -27 -27 -28 -28 -28 -28 -28 -28 -29 -29 -29 -29 -29 -29 -30 -30 -30 -30 -30 -29 -29 -29 -29 -29 -29 -29 -28 -28
-21 -21 -21 -21 -21 -21 -21 -21 -22 -22 -22 -22 -22 -22 -22 -22 -23 -23 -23 -23 -23 -23 -24 -24 -24 -25 -25 -25 -25 -25 -25 -25 -26 -26 -26 -26 -26 -26 -26 -26 -26 -26 -27 -27 -27 -27 -28 -28 -28 -28 -28 -28 -29 -29 -29 -29 -29 -29 -29 -29 -29 -30 -30 -30 -30 -29 -29 -29 -29 -29 -29 -29 -28 -28
-21 -21 -21 -22 -22 -22 -22 -22 -22 -22 -22 -23 -23 -23 -23 -23 -23 -23 -24 -24 -24 -24 -25 -25 -25 -25 -25 -25 -25 -26 -26 -26 -26 -26 -26 -27 -27 -27 -27 -27 -27 -27 -27 -27 -28 -28 -29 -29 -29 -29 -29 -29 -29 -29 -29 -29 -29 -29 -29 -29 -29 -29 -30 -30 -30 -30 -29 -29 -29 -29 -29 -29 -28 -28
-22 -22 -22 -22 -22 -22 -22 -23 -23 -23 -23 -23 -23 -23 -24 -24 -24 -24 -25 -25 -25 -25 -25 -25 -26 -26 -26 -26 -26 -26 -26 -26 -27 -27 -27 -27 -27 -27 -27 -27 -27 -27 -28 -28 -29 -29 -29 -29 -29 -29 -29 -29 -29 -29 -29 -29 -29 -29 -29 -29 -29 -29 -29 -29 -29 -29 -29 -29 -29 -29 -29 -29 -28 -28
-22 -22 -23 -23 -23 -23 -23 -23 -23 -23 -24 -24 -24 -24 -24 -25 -25 -25 -25 -26 -26 -26 -26 -26 -26 -26 -26 -26 -26 -26 -27 -27 -27 -27 -27 -27 -27 -27 -27 -27 -27 -28 -28 -29 -29 -29 -29 -29 -29 -29 -29 -29 -29 -29 -29 -29 -29 -29 -29 -29 -29 -29 -29 -29 -29 -29 -29 -29 -29 -29 -29 -29 -29 -28
-23 -23 -23 -23 -23 -24 -24 -24 -24 -24 -24 -25 -25 -25 -25 -26 -26 -26 -26 -26 -26 -26 -26 -26 -26 -26 -26 -26 -27 -27 -27 -27 -27 -27 -27 -27 -27 -27 -27 -27 -28 -28 -29 -29 -29 -29 -29 -29 -29 -29 -29 -29 -29 -29 -29 -29 -29 -29 -29 -29 -29 -29 -29 -29 -29 -29 -29 -29 -29 -29 -29 -29 -29 -29
Height
5790 5791 5791 5791 5792 5792 5793 5794 5795 5795 5796 5796 5796 5796 5795 5794 5793 5793 5794 5795 5795 5795 5795 5796 5796 5796 5796 5796 5796 5796 5796 5795 5795 5794 5794 5794 5794 5793 5793 5793 5793 5793 5793 5792 5792 5792 5792 5792 5791 5791 5790 5790 5789 5789 5788 5788 5787 5787 5787 5786 5786 5785 5785 5784 5783 5782 5782 5781 5780 5780 5779 5778 5778 5777
5788 5789 5789 5790 5790 5791 5791 5792 5793 5793 5794 5794 5793 5793 5793 5792 5791 5791 5792 5793 5793 5794 5794 5794 5794 5795 5795 5794 5794 5794 5794 5793 5793 5792 5792 5792 5791 5791 5791 5791 5791 5791 5790 5790 5790 5790 5790 5790 5789 5789 5789 5788 5788 5787 5786 5786 5785 5784 5784 5783 5783 5782 5782 5781 5780 5780 5779 5778 5778 5777 5776 5775 5775 5774
5787 5787 5788 5788 5789 5789 5790 5790 5791 5791 5791 5791 5791 5791 5790 5790 5789 5789 5790 5791 5792 5792 5792 5792 5792 5793 5793 5793 5792 5792 5792 5791 5791 5790 5790 5790 5789 5789 5789 5789 5789 5789 5788 5788 5788 5788 5788 5788 5787 5787 5787 5786 5786 5785 5784 5784 5783 5782 5781 5780 5780 5779 5778 5778 5777 5777 5776 5775 5775 5774 5773 5772 5772 5771
5785 5786 5786 5787 5787 5788 5788 5788 5788 5788 5789 5789 5789 5789 5788 5788 5787 5787 5788 5789 5789 5790 5790 5790 5790 5790 5790 5790 5790 5790 5790 5789 5789 5789 5788 5788 5787 5787 5787 5787 5786 5786 5786 5786 5786 5785 5785 5785 5785 5784 5784 5783 5783 5782 5781 5781 5780 5779 5778 5778 5777 5776 5775 5775 5774 5773 5773 5772 5771 5771 5770 5769 5769 5768
5783 5784 5785 5785 5786 5786 5786 5786 5786 5786 5787 5787 5787 5787 5786 5786 5785 5785 5786 5786 5787 5788 5788 5788 5788 5788 5788 5788 5788 5788 5788 5787 5787 5786 5786 5786 5785 5785 5785 5784 5784 5784 5783 5783 5783 5782 5782 5781 5781 5781 5780 5780 5779 5779 5778 5778 5777 5776 5775 5775 5774 5773 5772 5771 5771 5770 5769 5768 5768 5767 5766 5766 5765 5764
5782 5782 5783 5784 5784 5784 5784 5784 5784 5784 5785 5785 5785 5785 5785 5785 5784 5784 5784 5784 5785 5785 5785 5785 5785 5786 5785 5785 5786 5786 5785 5785 5785 5784 5784 5783 5783 5783 5782 5782 5781 5781 5781 5780 5780 5779 5779 5779 5778 5778 5778 5777 5777 5776 5775 5775 5774 5773 5772 5771 5770 5769 5768 5768 5767 5766 5765 5765 5764 5763 5763 5762 5761 5760
5780 5780 5781 5782 5782 5782 5782 5782 5782 5783 5783 5783 5783 5783 5784 5783 5782 5782 5782 5782 5782 5783 5783 5783 5783 5783 5782 5783 5783 5783 5783 5782 5782 5781 5781 5781 5780 5780 5779 5779 5778 5778 5778 5777 5777 5777 5777 5776 5776 5776 5775 5774 5774 5773 5772 5771 5771 5770 5769 5768 5767 5766 5765 5764 5763 5762 5762 5761 5760 5759 5759 5758 5757 5756
5778 5778 5779 5780 5780 5780 5780 5780 5780 5780 5781 5781 5781 5781 5782 5781 5781 5780 5780 5780 5780 5780 5780 5780 5781 5780 5780 5780 5780 5781 5780 5780 5779 5779 5778 5778 5777 5777 5777 5776 5776 5775 5775 5774 5774 5774 5774 5773 5773 5772 5772 5771 5770 5769 5768 5767 5767 5766 5765 5764 5763 5762 5761 5760 5760 5759 5758 5757 5756 5755 5754 5753 5752 5751
5775 5776 5777 5777 5777 5777 5777 5778 5777 5777 5778 5779 5779 5779 5779 5779 5779 5779 5779 5778 5778 5777 5777 5778 5778 5778 5777 5777 5777 5778 5777 5777 5776 5776 5775 5775 5775 5775 5774 5774 5773 5773 5772 5772 5772 5771 5771 5770 5770 5769 5768 5767 5767 5766 5764 5764 5763 5762 5761 5759 5758 5757 5757 5756 5755 5754 5753 5752 5751 5750 5749 5748 5746 5745
5772 5773 5773 5774 5774 5774 5775 5775 5775 5775 5776 5777 5777 5777 5777 5777 5777 5777 5777 5777 5776 5775 5775 5775 5775 5775 5775 5774 5774 5774 5774 5774 5773 5773 5773 5773 5772 5772 5771 5771 5771 5770 5770 5769 5769 5768 5768 5767 5766 5766 5765 5764 5764 5762 5761 5760 5759 5758 5756 5755 5753 5752 5752 5751 5750 5749 5748 5746 5745 5744 5743 5742 5740 5739
5770 5770 5770 5770 5770 5770 5771 5771 5772 5773 5773 5774 5774 5774 5774 5774 5774 5775 5775 5775 5774 5773 5772 5772 5772 5772 5772 5772 5772 5772 5771 5771 5770 5770 5770 5770 5769 5769 5769 5768 5768 5767 5766 5766 5765 5765 5765 5764 5763 5762 5761 5761 5760 5758 5757 5756 5754 5753 5751 5749 5748 5748 5747 5746 5745 5743 5742 5740 5739 5738 5737 5735 5734 5732
5767 5767 5767 5767 5766 5767 5767 5768 5769 5770 5770 5771 5771 5771 5771 5771 5771 5772 5772 5772 5772 5771 5770 5769 5769 5769 5769 5768 5769 5769 5768 5768 5767 5767 5768 5767 5766 5766 5766 5765 5764 5763 5762 5762 5761 5761 5760 5759 5758 5758 5757 5756 5755 5753 5752 5751 5749 5747 5745 5744 5743 5742 5741 5740 5739 5737 5736 5734 5733 5731 5730 5729 5727 5725
5764 5764 5764 5764 5764 5765 5765 5766 5767 5767 5768 5768 5768 5768 5768 5769 5768 5768 5769 5769 5769 5769 5768 5767 5766 5766 5765 5765 5765 5764 5764 5763 5763 5763 5764 5763 5762 5762 5762 5761 5760 5759 5758 5757 5757 5757 5756 5754 5753 5753 5752 5751 5750 5748 5747 5745 5744 5742 5740 5739 5737 5736 5735 5733 5732 5730 5729 5727 5726 5724 5723 5721 5719 5717
5761 5761 5762 5762 5762 5763 5763 5764 5764 5765 5765 5765 5765 5765 5766 5766 5766 5766 5766 5766 5766 5765 5765 5764 5764 5763 5762 5761 5761 5760 5760 5759 5759 5759 5759 5758 5757 5757 5758 5757 5756 5754 5754 5754 5754 5753 5751 5750 5749 5748 5748 5746 5745 5743 5741 5740 5738 5736 5735 5734 5732 5730 5729 5727 5726 5724 5722 5721 5719 5717 5715 5713 5711 5709
5758 5758 5759 5760 5760 5760 5761 5761 5761 5762 5762 5762 5762 5762 5762 5762 5762 5762 5762 5762 5762 5762 5761 5761 5760 5759 5759 5758 5758 5757 5757 5756 5756 5755 5754 5754 5753 5753 5753 5753 5751 5749 5749 5749 5750 5749 5746 5745 5744 5744 5742 5741 5739 5738 5736 5734 5733 5731 5730 5729 5727 5725 5723 5721 5719 5717 5715 5713 5711 5709 5707 5704 5701 5700
5755 5756 5757 5757 5758 5758 5758 5758 5758 5758 5759 5759 5759 5759 5759 5759 5759 5759 5759 5759 5758 5758 5758 5757 5757 5757 5756 5755 5755 5755 5754 5754 5753 5752 5751 5751 5750 5750 5749 5749 5747 5745 5744 5744 5744 5743 5741 5739 5739 5738 5737 5735 5733 5731 5730 5728 5727 5725 5724 5722 5720 5718 5716 5713 5711 5708 5706 5705 5703 5700 5698 5695 5692 5692
5753 5754 5754 5754 5755 5755 5755 5755 5755 5755 5755 5755 5756 5756 5756 5756 5756 5755 5755 5755 5755 5754 5754 5753 5753 5753 5753 5752 5752 5752 5751 5751 5750 5749 5748 5747 5747 5746 5745 5744 5743 5741 5740 5739 5739 5738 5736 5734 5734 5733 5732 5731 5729 5726 5724 5723 5721 5719 5717 5715 5714 5712 5709 5706 5703 5700 5698 5697 5695 5692 5690 5686 5684 5684
5750 5751 5751 5751 5751 5751 5751 5751 5752 5752 5752 5752 5752 5752 5752 5752 5752 5752 5751 5751 5751 5750 5750 5749 5749 5749 5749 5748 5748 5748 5747 5747 5746 5745 5744 5743 5743 5742 5741 5740 5738 5736 5736 5735 5734 5734 5731 5729 5729 5728 5727 5726 5725 5722 5720 5718 5717 5715 5712 5711 5709 5707 5704 5702 5699 5696 5693 5691 5689 5686 5683 5680 5678 5676
5747 5747 5748 5748 5747 5747 5747 5748 5748 5749 5749 5749 5748 5748 5748 5748 5748 5747 5747 5746 5746 5746 5745 5745 5744 5744 5744 5743 5743 5742 5742 5741 5740 5739 5739 5738 5738 5737 5736 5734 5732 5731 5731 5729 5728 5728 5726 5723 5723 5722 5720 5719 5719 5716 5715 5713 5711 5709 5707 5705 5703 5700 5697 5696 5694 5690 5687 5685 5682 5679 5676 5673 5671 5669
5743 5743 5743 5743 5743 5743 5743 5744 5744 5745 5744 5744 5744 5744 5743 5743 5743 5743 5743 5742 5742 5741 5741 5740 5739 5739 5738 5738 5738 5738 5737 5736 5735 5735 5734 5733 5732 5731 5730 5728 5726 5725 5724 5722 5721 5720 5719 5716 5716 5714 5712 5711 5710 5708 5707 5704 5702 5700 5698 5695 5694 5691 5688 5686 5684 5682 5679 5677 5674 5671 5668 5665 5662 5660
5739 5739 5739 5740 5740 5739 5739 5740 5740 5740 5740 5740 5739 5739 5739 5739 5739 5738 5738 5737 5737 5736 5736 5735 5735 5734 5734 5733 5733 5733 5733 5732 5731 5730 5728 5727 5726 5725 5723 5721 5719 5718 5717 5715 5714 5712 5711 5709 5707 5706 5704 5703 5701 5699 5697 5694 5692 5690 5687 5684 5682 5680 5678 5676 5674 5672 5669 5667 5664 5661 5658 5655 5653 5650
5735 5736 5736 5737 5737 5736 5736 5736 5736 5736 5736 5735 5735 5735 5734 5734 5734 5734 5733 5733 5732 5732 5731 5731 5730 5729 5729 5729 5729 5729 5728 5727 5726 5724 5722 5721 5719 5718 5716 5715 5713 5711 5709 5708 5707 5705 5703 5701 5699 5697 5696 5694 5692 5689 5686 5684 5682 5679 5676 5674 5671 5668 5666 5664 5662 5660 5658 5656 5653 5650 5647 5645 5643 5641
5732 5733 5733 5733 5733 5732 5732 5732 5732 5732 5732 5732 5731 5730 5730 5730 5730 5730 5730 5730 5729 5729 5728 5727 5726 5725 5725 5725 5724 5724 5723 5721 5720 5718 5717 5715 5713 5711 5709 5707 5705 5703 5701 5700 5699 5696 5695 5693 5691 5689 5687 5685 5683 5680 5676 5674 5672 5669 5666 5663 5660 5657 5654 5652 5650 5648 5645 5644 5641 5639 5636 5634 5632 5630
5728 5729 5729 5729 5729 5729 5728 5728 5728 5728 5728 5728 5727 5727 5726 5726 5726 5726 5726 5726 5725 5725 5724 5723 5722 5722 5721 5720 5719 5718 5717 5715 5714 5712 5710 5708 5706 5704 5702 5700 5698 5696 5693 5692 5690 5688 5686 5684 5681 5679 5677 5675 5673 5671 5667 5664 5661 5658 5655 5653 5649 5646 5643 5642 5639 5637 5634 5633 5631 5628 5626 5623 5621 5620
5724 5725 5725 5725 5725 5725 5725 5724 5724 5724 5724 5724 5723 5723 5722 5722 5722 5722 5722 5722 5721 5721 5720 5719 5718 5717 5716 5715 5714 5713 5711 5709 5707 5706 5704 5702 5700 5698 5696 5693 5691 5688 5686 5684 5682 5679 5677 5674 5672 5669 5666 5664 5662 5660 5657 5654 5651 5648 5645 5642 5639 5636 5633 5631 5629 5626 5624 5622 5620 5618 5615 5613 5612 5611
5721 5721 5721 5721 5721 5721 5721 5721 5720 5720 5720 5719 5719 5719 5718 5718 5718 5718 5718 5717 5717 5716 5715 5714 5713 5712 5710 5709 5707 5706 5704 5703 5701 5699 5697 5695 5693 5691 5689 5686 5684 5681 5678 5675 5673 5670 5667 5664 5662 5659 5656 5653 5650 5648 5646 5643 5640 5637 5634 5631 5628 5625 5623 5621 5618 5616 5614 5611 5609 5608 5606 5603 5602 5601
5717 5717 5717 5717 5717 5717 5716 5716 5716 5715 5715 5715 5715 5715 5714 5714 5714 5714 5713 5713 5712 5711 5710 5709 5708 5706 5704 5703 5701 5700 5698 5697 5695 5693 5690 5688 5686 5683 5681 5678 5676 5673 5670 5667 5664 5661 5657 5654 5651 5648 5645 5641 5639 5636 5634 5631 5628 5626 5623 5620 5618 5615 5612 5610 5608 5605 5603 5601 5599 5598 5596 5594 5592 5590
5713 5713 5713 5713 5713 5712 5712 5711 5711 5711 5711 5710 5710 5710 5710 5710 5709 5709 5708 5707 5706 5705 5704 5703 5701 5700 5698 5697 5695 5693 5692 5690 5688 5685 5683 5680 5678 5675 5672 5670 5667 5663 5660 5657 5654 5650 5647 5643 5640 5637 5634 5630 5627 5625 5622 5620 5617 5615 5613 5610 5607 5605 5603 5601 5598 5596 5594 5592 5590 5588 5587 5585 5583 5581
5708 5709 5708 5708 5708 5708 5707 5707 5706 5706 5706 5706 5706 5705 5705 5704 5704 5703 5702 5702 5701 5699 5698 5697 5695 5694 5692 5690 5689 5687 5685 5683 5680 5678 5675 5672 5669 5667 5663 5660 5657 5654 5650 5647 5643 5640 5636 5632 5629 5626 5622 5619 5616 5613 5612 5610 5607 5605 5603 5601 5598 5596 5594 5592 5590 5587 5585 5583 5581 5579 5578 5577 5575 5573
5704 5704 5704 5704 5703 5703 5703 5702 5702 5702 5701 5701 5700 5700 5699 5698 5698 5697 5697 5696 5695 5694 5692 5691 5689 5688 5686 5684 5682 5680 5678 5676 5673 5670 5667 5664 5661 5658 5654 5651 5647 5644 5640 5637 5633 5629 5626 5622 5619 5615 5612 5609 5606 5604 5602 5600 5598 5596 5594 5592 5590 5587 5585 5583 5581 5579 5576 5574 5572 5570 5569 5568 5566 5564
5699 5699 5699 5699 5699 5698 5698 5698 5698 5697 5696 5695 5695 5694 5693 5693 5692 5692 5691 5690 5689 5688 5686 5685 5683 5681 5679 5677 5675 5673 5670 5667 5665 5662 5659 5656 5652 5649 5645 5641 5637 5634 5630 5627 5623 5620 5616 5613 5610 5606 5603 5600 5597 5595 5593 5591 5589 5587 5584 5582 5581 5579 5576 5574 5572 5570 5568 5565 5563 5561 5560 5558 5557 5555
5695 5695 5694 5694 5694 5694 5694 5693 5692 5691 5691 5690 5689 5688 5688 5687 5687 5686 5686 5684 5683 5682 5680 5678 5676 5674 5672 5670 5667 5665 5662 5659 5657 5654 5650 5647 5643 5640 5636 5632 5628 5625 5621 5617 5614 5611 5608 5605 5602 5598 5595 5592 5589 5587 5584 5582 5580 5578 5575 5572 5570 5569 5567 5564 5562 5560 5558 5557 5555 5553 5551 5550 5548 5547
5690 5690 5690 5689 5689 5689 5688 5688 5687 5686 5685 5685 5684 5683 5682 5682 5681 5680 5679 5678 5677 5675 5673 5671 5669 5667 5665 5663 5660 5657 5655 5652 5649 5645 5642 5639 5635 5632 5628 5625 5621 5617 5613 5610 5606 5603 5600 5597 5594 5591 5588 5584 5581 5578 5576 5573 5571 5569 5566 5563 5561 5559 5557 5555 5553 5551 5549 5548 5546 5544 5543 5542 5540 5539
5684 5684 5684 5684 5684 5683 5683 5682 5682 5681 5680 5679 5678 5678 5677 5676 5675 5674 5673 5671 5670 5668 5666 5664 5662 5660 5658 5655 5653 5650 5647 5644 5641 5637 5634 5631 5627 5624 5620 5617 5613 5610 5606 5602 5598 5595 5592 5589 5585 5582 5579 5576 5574 5571 5568 5566 5563 5561 5558 5556 5553 5550 5549 5547 5545 5543 5541 5540 5538 5537 5535 5534 5533 5532
5679 5679 5678 5678 5678 5678 5678 5677 5676 5676 5675 5673 5672 5671 5670 5669 5668 5667 5666 5664 5663 5661 5659 5657 5655 5653 5650 5648 5645 5642 5640 5636 5633 5630 5626 5623 5619 5616 5613 5609 5606 5602 5598 5595 5591 5588 5585 5582 5578 5575 5572 5569 5566 5564 5561 5558 5556 5553 5551 5548 5545 5543 5541 5539 5537 5535 5534 5532 5531 5530 5529 5528 5528 5527
5673 5673 5673 5673 5673 5673 5672 5671 5671 5670 5669 5668 5666 5665 5664 5663 5662 5660 5659 5658 5656 5654 5652 5650 5648 5645 5643 5640 5637 5634 5632 5629 5625 5622 5618 5615 5612 5608 5605 5602 5598 5595 5591 5588 5585 5582 5579 5576 5573 5569 5566 5562 5559 5556 5553 5551 5549 5546 5543 5541 5539 5537 5535 5533 5531 5529 5528 5526 5525 5525 5524 5523 5523 5523
5668 5668 5668 5667 5667 5667 5666 5666 5665 5664 5663 5662 5661 5660 5658 5657 5655 5654 5652 5651 5649 5647 5645 5642 5640 5638 5635 5632 5629 5627 5624 5621 5618 5614 5611 5608 5604 5601 5598 5595 5591 5588 5585 5582 5579 5576 5573 5570 5567 5563 5560 5556 5553 5549 5546 5544 5543 5541 5538 5535 5533 5531 5530 5528 5526 5525 5524 5522 5521 5521 5520 5519 5519 5519
5662 5662 5662 5662 5661 5661 5661 5660 5659 5658 5657 5656 5655 5654 5652 5651 5649 5647 5645 5644 5642 5640 5638 5635 5632 5630 5627 5624 5622 5619 5617 5614 5610 5607 5604 5600 5597 5594 5591 5588 5585 5582 5579 5576 5572 5569 5566 5563 5560 5557 5554 5550 5547 5544 5541 5538 5536 5535 5533 5531 5528 5527 5525 5524 5523 5522 5521 5520 5519 5518 5517 5517 5516 5516
5657 5657 5657 5656 5656 5655 5655 5654 5653 5652 5651 5650 5649 5648 5646 5644 5643 5641 5639 5637 5635 5633 5631 5628 5625 5622 5619 5617 5614 5612 5609 5606 5603 5599 5596 5593 5590 5587 5584 5581 5578 5575 5572 5569 5566 5563 5560 5557 5554 5551 5548 5545 5542 5539 5536 5533 5531 5529 5528 5526 5525 5523 5522 5521 5520 5519 5518 5517 5516 5516 5515 5514 5514 5513
5652 5651 5651 5650 5650 5649 5649 5648 5647 5646 5645 5644 5643 5642 5640 5639 5637 5635 5633 5631 5629 5627 5624 5622 5619 5616 5613 5610 5607 5604 5601 5598 5595 5592 5589 5586 5583 5580 5577 5575 5572 5569 5566 5563 5560 5557 5554 5551 5548 5546 5543 5540 5537 5534 5531 5529 5527 5524 5523 5522 5521 5520 5519 5518 5517 5516 5515 5514 5514 5513 5512 5512 5511 5510
5646 5646 5646 5645 5644 5644 5643 5642 5641 5640 5640 5638 5637 5636 5634 5633 5631 5629 5627 5625 5623 5621 5619 5616 5613 5610 5607 5604 5601 5598 5595 5592 5589 5586 5583 5580 5577 5574 5572 5569 5566 5563 5560 5557 5554 5551 5549 5546 5544 5541 5539 5536 5533 5530 5528 5525 5523 5521 5519 5518 5517 5516 5515 5514 5513 5513 5512 5511 5511 5510 5510 5509 5509 5508
5641 5641 5640 5640 5639 5638 5638 5637 5636 5635 5634 5633 5631 5630 5628 5627 5625 5623 5621 5619 5617 5615 5613 5611 5608 5605 5602 5599 5595 5592 5589 5586 5583 5580 5577 5575 5572 5569 5567 5564 5560 5557 5554 5552 5549 5547 5545 5543 5540 5538 5535 5532 5530 5527 5524 5522 5520 5517 5515 5513 5512 5511 5511 5510 5510 5509 5509 5509 5508 5508 5507 5507 5506 5505
5636 5635 5635 5634 5634 5633 5632 5631 5630 5629 5628 5627 5625 5624 5623 5621 5620 5618 5616 5614 5612 5610 5608 5606 5603 5600 5597 5594 5590 5587 5584 5581 5579 5576 5573 5570 5568 5565 5562 5559 5556 5552 5550 5547 5545 5544 5542 5540 5537 5534 5532 5529 5527 5524 5521 5518 5516 5514 5512 5510 5508 5507 5507 5507 5506 5506 5506 5505 5505 5505 5504 5504 5504 5503
5630 5629 5629 5628 5628 5627 5626 5625 5625 5623 5622 5621 5620 5619 5617 5616 5615 5613 5612 5610 5608 5606 5603 5600 5598 5595 5592 5589 5586 5583 5580 5577 5574 5572 5569 5566 5563 5560 5557 5554 5551 5548 5546 5544 5542 5540 5539 5537 5534 5531 5529 5526 5524 5521 5518 5515 5513 5511 5509 5507 5506 5505 5504 5503 5503 5503 5503 5502 5502 5501 5501 5501 5501 5500
5624 5624 5623 5623 5622 5621 5621 5620 5619 5618 5617 5616 5615 5614 5613 5612 5610 5609 5607 5605 5603 5601 5598 5595 5592 5590 5587 5584 5581 5578 5575 5573 5570 5568 5565 5562 5559 5556 5553 5550 5547 5545 5543 5541 5539 5538 5536 5534 5531 5529 5526 5523 5521 5519 5516 5513 5510 5509 5507 5505 5504 5503 5502 5501 5501 5500 5500 5499 5499 5498 5498 5498 5498 5498
Wind_Speed
21 20 18 17 16 16 16 16 16 15 15 16 16 17 18 19 19 19 19 18 19 20 20 19 18 17 17 17 16 16 17 18 19 19 20 20 20 20 20 20 20 20 20 20 21 21 21 21 20 19 18 17 17 17 17 17 17 17 18 18 18 19 19 19 20 20 20 21 21 22 23 24 24 25
19 18 18 17 17 17 17 16 15 15 15 16 17 18 19 19 19 19 19 18 18 19 19 18 17 17 17 17 17 18 19 20 20 20 20 20 20 20 20 20 20 20 20 21 21 21 22 22 21 20 20 19 19 19 19 18 18 18 19 19 19 20 20 21 21 21 22 22 23 24 24 25 25 26
19 18 17 17 17 17 17 17 16 16 17 17 18 19 20 20 19 19 19 18 18 18 18 17 17 18 18 18 19 20 20 20 20 20 20 21 21 20 20 21 21 21 21 21 21 21 21 21 21 21 21 21 21 21 21 21 21 20 20 20 21 21 21 22 22 23 24 24 25 25 26 27 27 28
19 18 18 18 18 18 18 18 18 18 18 18 18 19 19 19 20 20 20 19 17 17 17 17 17 18 19 20 20 20 20 20 20 20 21 21 21 21 21 21 21 21 21 21 21 21 21 21 22 22 22 22 23 23 23 23 23 23 22 22 22 22 23 23 24 25 25 26 26 27 28 28 29 30
19 18 18 18 19 19 19 19 19 19 18 18 18 19 19 19 20 20 20 19 18 17 18 18 17 18 20 21 21 21 21 20 20 21 21 21 21 21 21 22 22 22 22 22 22 22 22 22 23 23 24 24 24 24 24 24 25 25 25 24 24 24 25 25 26 27 27 28 28 29 30 30 31 32
19 19 18 18 19 20 20 20 20 19 18 18 19 19 18 19 20 20 20 20 19 19 19 19 19 20 21 22 21 21 21 21 21 21 21 21 22 22 22 22 22 22 22 23 23 23 23 23 24 24 24 24 25 25 26 26 26 27 27 27 27 27 28 28 29 29 29 30 30 31 31 32 33 34
19 19 18 18 19 19 19 20 20 19 19 19 20 19 17 18 19 20 21 21 22 21 21 20 21 21 22 22 22 22 22 22 21 22 22 22 23 23 23 23 23 23 23 23 23 24 24 24 25 25 25 25 26 27 27 28 28 29 29 29 30 30 31 31 31 31 31 32 32 33 33 34 35 36
20 19 19 18 18 18 18 19 19 20 20 20 20 19 18 19 20 20 21 22 22 22 21 21 21 21 22 23 23 23 23 23 23 23 23 24 24 24 24 24 24 24 24 24 24 24 25 25 25 25 26 26 27 28 29 29 30 30 31 32 32 33 33 33 33 33 33 34 34 35 35 36 37 38
21 20 19 18 18 19 18 18 19 20 21 20 19 19 19 19 19 20 20 21 22 22 22 21 21 21 22 23 24 24 24 25 25 25 25 25 25 25 25 25 25 25 25 25 25 25 25 26 26 27 28 28 29 30 30 31 31 32 33 34 34 34 34 34 34 35 35 36 37 38 38 39 40 40
22 21 21 20 19 19 19 19 20 21 20 18 18 18 19 19 19 19 20 21 22 23 23 22 22 22 23 24 25 25 26 27 27 26 26 25 25 25 25 26 26 26 26 26 26 26 26 27 28 29 29 30 30 31 31 32 33 34 35 36 36 36 36 36 36 37 38 39 40 40 40 41 42 43
22 21 21 20 19 18 18 18 19 18 17 17 17 18 18 19 19 20 20 21 22 23 23 22 22 23 23 24 25 26 27 27 27 27 26 26 26 26 26 26 26 25 25 26 26 26 27 28 29 30 30 30 31 32 33 34 35 36 37 37 37 37 37 38 39 41 42 42 42 42 43 44 45 46
20 20 20 19 19 17 16 16 17 17 17 17 18 18 19 19 20 21 21 21 21 21 21 22 22 22 23 24 25 26 26 27 27 27 26 27 28 26 25 25 25 25 26 26 27 27 28 29 30 30 30 30 32 34 35 36 37 37 38 39 38 39 40 41 42 44 45 45 45 45 45 47 48 50
20 20 20 19 18 18 17 16 17 18 19 20 19 19 19 20 20 21 21 20 20 20 20 21 22 23 24 25 26 27 28 28 28 27 26 27 27 26 25 25 26 27 27 27 27 28 29 31 31 31 31 32 34 36 37 38 38 39 40 40 40 41 42 43 44 46 46 47 47 48 49 51 53 54
21 21 20 20 20 21 22 21 21 21 21 21 20 20 20 20 20 21 20 20 19 19 20 21 23 24 26 27 27 28 29 28 28 28 28 27 27 27 25 25 27 29 29 28 27 28 30 32 32 32 32 33 35 37 38 39 39 40 41 41 42 44 45 46 47 48 48 48 49 51 53 55 57 58
22 21 21 22 22 24 25 25 24 22 21 22 22 22 22 21 21 22 21 21 21 20 21 22 24 26 27 27 28 28 28 28 28 29 28 28 28 28 27 26 28 30 31 30 29 29 31 33 33 33 35 37 39 40 40 40 40 41 41 43 46 48 48 48 49 50 50 50 52 54 56 58 60 60
22 22 22 23 24 25 26 26 25 24 24 24 24 24 24 23 24 23 23 23 23 23 23 24 25 26 27 28 28 27 27 28 28 28 28 28 29 28 28 28 29 32 34 34 34 33 33 35 35 36 39 41 41 41 41 42 43 44 45 47 49 49 49 50 51 52 52 52 53 54 55 58 59 58
22 23 23 24 24 25 26 26 26 26 26 25 25 25 25 25 25 24 24 24 25 25 26 26 26 26 26 27 28 27 27 26 27 27 27 28 28 28 29 30 32 34 35 36 36 36 36 37 38 39 40 41 41 42 43 44 45 47 49 50 49 48 49 50 51 53 53 52 53 55 57 60 61 59
23 22 22 23 24 25 26 26 26 26 26 27 26 26 27 27 26 26 26 26 26 27 27 26 25 24 25 26 27 27 27 27 27 27 28 28 28 29 31 32 33 35 36 36 37 38 40 42 42 43 43 43 43 44 45 46 46 47 49 51 50 50 51 51 53 56 57 58 60 62 63 61 59 58
23 22 22 23 25 26 27 26 26 26 26 27 27 28 29 29 28 28 28 28 28 28 28 27 26 25 25 27 29 29 30 30 30 30 30 31 32 32 34 36 37 38 39 40 41 42 44 46 46 46 48 48 48 49 50 51 52 53 55 57 57 59 61 61 62 64 67 68 68 68 67 64 62 63
25 24 25 25 26 28 28 27 25 25 26 27 28 29 29 28 29 29 29 28 28 28 29 30 30 29 28 30 30 31 31 31 32 33 34 35 36 37 38 40 41 42 43 44 46 46 47 49 49 51 53 54 55 55 56 57 59 61 62 63 63 65 66 66 67 68 70 70 69 70 71 71 72 73
28 27 27 27 28 31 31 30 28 27 27 29 30 31 30 29 29 28 27 27 28 28 29 30 31 31 32 33 33 34 34 35 35 37 38 39 40 41 42 43 45 46 47 48 50 51 52 53 54 55 57 57 58 59 60 61 62 63 64 64 65 65 66 67 69 70 70 71 71 72 72 73 74 75
28 28 28 29 30 32 34 33 32 31 30 31 32 32 31 30 29 27 26 28 29 29 30 31 32 33 34 36 37 38 39 39 40 41 42 43 44 45 46 47 49 50 51 51 52 53 54 56 57 58 59 60 61 62 63 64 65 66 66 66 67 68 68 69 70 71 71 72 72 73 73 73 74 75
30 30 30 31 30 31 31 31 31 30 30 30 30 30 30 30 29 28 28 30 30 31 32 32 33 35 37 38 39 40 41 42 43 44 45 47 48 49 50 50 51 52 53 53 54 56 57 58 60 61 63 64 65 66 67 67 68 68 68 68 69 69 70 70 70 71 71 71 71 71 72 73 74 75
31 30 30 28 27 25 24 25 26 26 26 27 27 26 27 27 27 28 29 30 32 34 35 35 36 37 38 39 40 42 43 45 46 47 49 49 50 51 51 52 53 54 55 57 58 59 61 62 64 65 67 68 69 70 71 71 71 71 71 70 70 70 70 70 70 71 71 70 70 71 71 72 73 73
30 29 27 26 24 22 21 22 23 24 24 24 24 25 26 27 28 29 31 32 34 35 36 37 38 39 40 41 43 44 46 47 48 49 50 50 51 52 53 54 56 57 59 60 62 63 65 66 68 69 70 72 73 74 74 74 74 73 72 71 70 70 69 69 69 69 69 69 69 70 70 71 71 68
28 28 27 26 25 24 24 24 25 26 25 26 27 28 29 30 31 32 34 34 35 35 37 38 40 41 43 44 46 47 48 48 49 50 51 52 54 55 56 58 59 61 62 64 66 67 69 70 71 72 73 74 75 75 75 75 74 74 73 71 70 68 67 67 66 66 66 67 67 68 68 69 69 68
28 29 29 28 27 27 26 27 28 28 28 29 30 31 32 33 33 34 35 36 37 38 39 41 42 44 45 46 47 48 49 49 51 52 54 55 56 58 59 61 62 64 66 67 69 71 72 73 74 75 75 76 75 75 74 73 72 70 69 68 66 65 64 63 63 63 63 63 64 64 64 65 65 65
30 30 29 29 29 29 30 30 31 31 31 32 32 33 34 34 35 36 37 38 40 41 42 43 44 45 46 48 49 49 51 52 53 55 56 57 59 60 62 64 65 67 69 70 72 73 74 75 76 76 75 75 73 72 70 68 67 65 63 62 62 61 60 60 60 60 60 60 60 60 60 60 60 60
29 29 30 31 31 32 32 33 33 33 34 34 34 35 35 36 37 38 39 40 41 42 43 44 45 46 48 49 50 52 53 54 55 57 58 60 62 64 65 67 68 70 71 72 73 74 74 75 74 73 72 70 68 67 65 63 62 61 59 59 59 59 59 59 59 59 59 59 59 59 58 58 58 58
29 31 32 33 33 34 34 35 36 36 36 37 37 37 37 37 38 39 40 40 41 42 44 45 46 48 49 50 52 53 55 56 58 60 62 64 66 67 69 70 71 72 73 73 73 73 72 71 70 68 67 65 64 63 62 61 60 60 59 59 59 59 59 59 60 60 61 61 61 61 61 60 60 59
33 34 35 35 35 36 36 37 37 37 37 37 37 37 37 38 39 39 40 41 43 44 45 47 48 49 51 52 54 56 57 60 62 64 66 68 69 70 71 72 73 73 73 72 72 71 69 67 66 65 64 64 64 63 63 62 61 61 61 61 60 60 60 60 60 60 60 61 61 61 61 61 61 61
34 35 35 35 35 36 36 36 36 36 36 36 36 37 38 39 40 40 42 43 44 45 47 48 50 51 53 55 57 59 61 63 65 67 68 70 71 72 72 72 72 71 71 69 68 67 65 64 64 64 64 64 63 63 62 62 61 60 60 59 58 57 57 57 56 56 56 57 57 57 58 58 59 59
34 34 35 35 35 35 35 35 35 35 36 36 37 38 39 40 41 42 43 44 45 47 49 50 52 54 56 58 60 62 64 66 67 68 70 70 71 71 71 70 68 67 66 65 64 64 64 63 63 62 62 61 60 59 58 57 56 56 55 55 54 54 53 53 53 52 52 52 52 52 52 53 53 52
36 35 35 35 34 34 35 35 35 36 36 37 38 39 40 41 42 43 44 46 48 49 51 53 55 57 59 61 63 64 66 67 68 69 69 69 69 68 67 66 64 63 63 62 62 62 61 60 58 57 56 55 54 54 54 53 53 53 52 52 52 51 50 50 49 49 48 48 47 47 46 45 44 44
36 35 35 35 34 35 35 35 36 36 37 38 39 40 41 42 43 45 46 48 50 52 54 56 57 59 61 63 64 65 66 67 67 67 67 66 66 64 63 62 61 60 60 59 58 56 54 53 52 52 52 52 52 52 52 52 51 51 50 49 48 47 46 45 44 43 42 42 41 39 38 37 36 35
35 35 35 35 35 35 35 35 36 37 38 39 39 40 42 43 45 47 49 51 52 54 56 57 59 60 62 63 64 65 65 65 65 65 64 63 61 60 59 58 57 56 55 53 51 50 50 50 50 51 51 52 52 51 50 49 47 46 45 44 43 42 40 38 36 36 35 34 33 33 33 33 33 33
35 35 34 34 34 35 35 36 36 37 38 39 40 42 44 46 47 49 51 52 54 55 57 58 60 61 62 63 63 63 63 63 62 61 59 58 57 56 55 54 52 51 49 48 48 48 49 49 49 50 50 50 48 47 46 44 42 40 39 39 38 36 34 31 29 27 26 25 24 25 26 27 28 29
34 34 34 34 34 35 35 36 37 38 39 41 42 44 46 48 49 51 52 53 55 56 57 59 60 60 61 61 61 60 59 58 57 56 55 54 53 52 50 49 47 47 46 47 47 47 48 48 48 47 46 45 43 42 41 41 40 38 36 34 33 31 28 27 25 23 21 20 20 20 20 20 21 23
34 34 34 34 34 35 36 37 38 40 41 43 44 46 47 49 50 51 52 53 55 56 57 58 59 59 59 58 57 56 55 53 53 52 51 50 49 47 46 45 45 45 45 46 46 46 46 46 44 43 41 40 39 39 39 39 38 36 34 32 30 28 26 24 23 22 20 20 20 20 21 20 20 22
34 34 35 35 36 37 38 39 41 42 43 44 45 46 47 49 50 51 52 53 54 55 56 56 56 55 55 54 53 52 51 50 49 48 47 46 44 44 43 43 43 43 44 44 45 44 42 40 38 37 37 37 37 37 36 34 33 33 32 32 30 28 26 25 24 22 21 21 21 21 21 21 21 22
35 36 36 37 38 39 40 41 42 43 44 45 45 46 47 48 50 51 52 52 53 53 53 52 51 51 50 49 49 48 47 46 45 44 43 42 42 41 41 41 42 42 42 42 40 38 35 34 33 34 34 33 32 32 31 30 31 32 33 33 31 28 27 27 26 24 23 22 22 22 21 21 21 22
36 37 38 39 40 41 42 42 43 43 44 44 45 46 47 48 49 49 50 50 49 49 48 47 46 46 46 45 45 44 44 43 42 41 40 40 40 40 40 40 40 40 39 37 34 31 30 30 32 32 32 31 30 30 30 29 30 31 31 31 30 28 26 26 26 26 25 24 24 24 23 22 22 23
38 39 40 40 40 41 41 41 42 42 43 43 44 45 46 46 46 46 46 45 45 44 44 43 43 42 42 42 41 41 40 39 39 38 38 38 38 38 38 38 38 37 34 31 29 27 27 29 31 31 30 29 29 29 30 29 28 27 27 26 26 25 24 24 25 26 26 26 26 25 25 23 22 23
39 39 39 39 39 39 40 40 40 41 41 42 43 43 43 42 42 42 41 41 41 40 40 40 39 39 39 38 38 38 37 37 36 36 36 36 37 37 37 36 35 33 30 27 26 26 27 28 30 30 30 29 28 28 28 28 27 25 24 23 22 21 21 21 21 22 23 24 23 23 24 23 22 22
38 38 38 38 38 38 38 39 39 39 39 39 39 38 38 38 38 37 37 37 36 36 36 37 37 36 36 36 35 35 35 35 34 34 35 35 35 35 35 34 33 30 26 24 25 26 27 28 29 30 30 29 28 27 27 27 26 24 22 20 19 18 17 17 18 18 19 20 21 21 21 21 21 21
Wind_Direction
245 244 243 243 243 242 243 243 242 239 237 239 241 244 247 250 253 257 257 254 254 258 264 266 266 267 268 268 268 269 269 268 269 269 269 268 267 267 266 265 265 266 268 270 271 271 271 270 269 269 269 268 268 268 268 270 271 273 274 275 276 277 278 280 281 282 282 283 283 284 283 283 282 282
245 246 245 245 244 243 242 242 242 242 241 243 245 247 249 252 254 257 257 255 254 258 261 262 263 265 266 266 267 268 268 268 268 268 267 267 266 265 265 265 265 265 267 270 271 271 271 271 270 270 270 269 268 267 267 267 269 269 271 272 274 276 279 281 282 283 283 282 282 282 281 281 280 279
246 247 246 245 244 243 242 241 244 246 246 246 247 248 250 253 255 256 255 253 253 254 256 259 263 266 266 267 266 266 266 266 267 267 267 267 266 266 265 265 265 266 267 269 269 269 269 269 268 268 268 268 267 267 267 267 268 269 270 271 274 277 279 282 283 283 283 282 281 280 279 279 279 279
248 248 246 245 245 243 244 245 247 248 248 247 248 249 250 252 254 255 253 252 249 249 253 258 262 265 266 266 265 265 265 266 267 268 268 268 268 267 266 266 266 267 268 268 267 266 265 265 264 265 265 265 266 266 267 267 268 269 271 272 275 277 280 281 283 283 282 282 281 280 279 279 279 280
249 248 247 246 246 246 248 250 249 248 247 246 247 248 249 251 251 252 252 251 247 246 253 259 260 261 263 264 264 264 265 266 267 268 269 269 269 269 268 268 267 268 268 267 266 264 263 262 262 263 264 265 266 267 267 268 269 270 272 274 276 277 278 280 280 280 280 280 280 279 279 280 280 280
248 249 248 248 248 249 249 249 248 246 245 246 247 246 246 249 250 252 253 253 251 251 256 261 264 265 264 264 265 266 266 267 267 268 269 269 269 268 268 267 267 268 267 267 266 266 265 264 265 265 267 268 269 269 270 270 272 273 274 276 276 277 277 277 277 278 278 279 279 280 280 280 281 281
247 249 249 249 249 249 249 248 246 245 246 248 249 248 247 250 252 254 255 256 257 258 261 263 265 266 266 266 266 266 266 266 266 266 266 266 265 264 264 264 265 265 266 266 266 266 266 266 267 268 269 270 270 271 272 273 274 275 277 278 278 277 277 277 278 279 279 280 281 281 282 282 282 283
246 249 250 251 251 251 250 248 247 246 246 248 251 252 252 253 254 256 258 259 261 263 265 264 263 264 265 267 266 266 266 267 266 266 265 265 264 264 265 265 265 265 265 265 265 266 266 266 267 268 268 269 269 270 272 273 274 276 278 279 279 279 279 280 281 282 283 283 284 284 284 283 283 283
245 247 248 250 251 252 251 248 247 246 246 247 250 253 254 254 255 256 258 261 265 267 268 267 266 266 267 268 268 267 266 266 265 265 265 266 267 269 270 270 270 270 269 269 269 269 268 268 269 269 270 270 271 272 273 275 277 279 279 279 279 278 279 281 282 283 284 285 285 285 285 284 283 282
242 243 245 248 249 250 251 249 248 248 250 251 253 254 255 256 256 255 256 260 265 268 269 269 269 268 268 268 268 268 267 266 266 266 267 269 270 270 271 272 272 272 273 273 273 272 273 273 273 273 273 274 275 277 278 280 282 282 282 281 280 279 280 281 283 283 284 285 285 285 284 284 283 281
243 244 247 250 250 246 244 245 247 251 253 254 254 255 256 257 257 255 254 256 260 263 266 267 268 269 269 268 268 268 268 269 271 273 275 275 274 274 274 274 273 273 273 273 273 275 276 277 278 278 278 279 279 280 282 283 284 284 283 281 280 281 282 283 284 284 284 283 283 283 283 283 283 282
245 246 249 253 251 240 232 237 245 251 254 255 254 256 257 258 259 258 256 255 255 258 262 265 267 268 269 268 267 267 268 269 271 272 274 274 274 275 275 274 274 273 273 273 275 277 279 280 281 281 281 281 281 282 283 284 284 284 282 281 281 282 283 284 284 284 283 282 281 282 282 283 283 282
245 246 248 252 249 237 231 241 253 258 260 260 260 261 261 263 264 263 262 261 260 261 263 266 268 269 269 270 270 270 271 272 274 275 274 274 274 273 272 272 272 273 273 275 277 281 283 284 284 284 284 284 285 286 287 286 285 283 282 282 283 284 285 285 285 285 285 284 283 283 283 283 283 282
245 246 248 251 249 242 243 254 263 265 266 268 269 270 270 270 269 268 269 270 270 271 270 269 269 269 270 272 273 274 275 276 278 279 279 278 277 276 275 274 274 274 275 277 281 284 285 285 286 286 287 287 287 288 288 286 284 283 282 283 284 285 286 286 286 286 286 285 284 283 284 284 284 282
247 249 250 252 254 254 257 263 268 269 270 271 271 272 272 273 274 275 277 279 279 278 275 273 272 272 273 274 275 275 276 277 278 278 279 279 279 279 279 277 276 276 278 279 282 283 284 284 286 287 288 288 288 289 288 287 285 284 284 285 286 286 286 287 288 288 286 286 286 286 286 285 284 282
250 253 255 257 258 260 261 264 266 267 268 267 267 268 269 271 272 275 277 278 279 279 275 272 270 270 271 272 272 272 273 273 274 274 275 275 275 276 276 275 275 278 281 283 285 285 284 284 286 288 290 291 291 290 290 289 288 288 288 289 289 288 288 289 289 288 286 286 286 285 284 283 282 282
254 256 259 261 261 261 261 261 262 264 265 265 266 266 266 267 269 272 275 277 278 279 278 274 269 266 266 267 267 268 268 268 269 269 270 271 272 274 274 275 276 278 280 282 283 283 282 282 284 287 290 290 288 288 289 288 287 287 288 289 288 286 285 285 285 285 284 284 284 283 281 280 281 280
256 258 261 263 264 264 263 263 264 265 267 267 268 269 270 271 272 272 274 276 277 278 278 276 273 270 270 270 270 269 269 270 270 270 270 271 272 273 274 276 276 276 277 278 279 281 281 281 283 284 284 283 281 282 283 283 281 281 282 283 282 279 278 279 280 281 281 283 285 285 283 280 277 276
255 258 262 264 267 267 267 267 268 269 270 269 269 270 271 273 275 276 277 279 280 280 279 276 273 273 275 275 275 275 275 276 276 276 276 276 276 277 278 279 279 279 280 281 281 282 282 282 283 283 284 283 281 280 279 278 277 277 276 276 276 276 276 277 278 278 279 280 282 282 281 278 276 278
253 257 262 265 269 272 273 272 273 275 275 274 273 273 274 276 279 281 281 283 284 284 283 280 276 274 275 277 277 279 280 281 282 282 283 283 284 284 284 284 284 285 285 284 284 285 285 285 285 285 285 285 285 283 281 280 279 279 278 277 277 277 277 277 277 277 277 278 278 279 279 280 280 282
256 259 263 266 269 273 276 277 278 277 277 277 277 278 279 281 282 283 283 284 284 284 284 283 278 275 275 277 280 282 284 285 285 286 287 287 287 287 286 286 287 287 287 287 287 287 287 286 286 286 286 286 285 285 284 284 283 283 282 281 280 279 278 277 277 276 276 277 277 278 278 278 278 279
255 260 264 267 269 271 273 274 275 276 276 276 277 278 280 281 282 284 282 280 279 281 282 282 280 278 278 280 282 284 285 286 287 288 288 288 288 288 288 288 288 288 288 288 288 287 287 287 288 288 288 288 288 288 287 287 286 286 285 284 282 281 280 279 278 278 277 277 277 276 276 275 275 276
257 262 267 270 273 273 271 270 270 271 271 271 270 271 274 275 275 276 274 271 270 272 274 275 277 278 280 282 283 285 286 287 287 288 289 289 289 290 290 290 290 289 289 289 289 289 289 289 289 290 289 289 289 288 288 287 287 286 285 284 283 282 281 281 280 279 279 278 277 277 276 276 275 276
262 264 267 271 275 276 273 270 268 266 266 267 266 266 267 267 265 265 266 265 265 268 271 274 277 280 282 283 285 286 287 287 288 289 289 289 289 290 290 290 290 290 290 291 291 291 291 291 290 290 289 288 288 287 287 287 287 286 285 285 284 283 282 282 281 280 280 280 279 278 277 276 276 277
259 262 266 269 271 272 270 267 264 262 262 265 264 262 260 258 257 258 260 263 267 271 275 279 281 283 284 285 286 286 287 288 288 288 289 289 289 290 290 291 291 291 291 291 291 291 291 290 290 289 289 288 288 287 287 287 287 287 286 286 285 285 284 283 282 282 281 280 279 278 277 276 276 276
256 260 265 267 268 267 265 263 262 261 259 259 260 261 262 262 263 265 267 270 274 277 279 281 282 283 285 286 287 287 287 288 288 289 290 290 291 291 291 291 291 291 291 291 291 291 290 290 290 290 289 289 289 289 289 289 289 289 289 289 288 287 286 285 283 282 281 279 278 278 277 277 277 275
257 260 263 265 266 265 264 262 262 262 262 262 263 266 268 269 271 273 275 276 277 278 280 281 283 284 285 286 287 287 288 289 290 290 291 291 291 291 292 292 292 292 291 291 291 291 291 291 291 291 291 291 291 291 291 291 291 291 291 290 289 288 287 286 284 283 281 280 279 279 279 279 278 278
260 262 264 265 265 265 265 265 265 267 268 270 271 273 274 276 277 277 277 277 278 279 281 283 284 285 286 287 288 289 290 290 291 291 291 292 292 292 293 293 292 292 292 292 292 292 292 292 293 293 293 293 293 293 293 293 293 293 292 291 289 288 287 286 285 283 282 281 281 280 280 280 280 280
259 261 263 264 265 266 268 270 272 273 274 276 277 278 278 277 277 277 277 278 280 282 283 284 285 286 287 288 289 290 290 291 291 292 292 293 293 293 294 294 294 294 294 294 294 294 294 294 295 295 295 295 295 295 295 294 294 293 292 290 289 287 286 285 284 283 282 282 281 280 280 280 280 280
257 261 264 266 268 270 272 273 275 276 277 277 277 277 277 276 277 278 279 281 282 283 284 285 287 288 289 289 290 290 291 292 293 293 294 294 294 294 294 295 295 295 295 295 296 296 296 297 297 297 297 297 296 296 295 294 293 292 291 289 288 287 286 285 283 283 282 281 281 280 280 280 280 279
260 264 267 268 270 271 273 273 274 275 275 276 276 277 277 278 279 280 282 283 284 285 286 287 288 289 290 291 291 292 293 294 294 294 294 294 294 295 295 295 296 297 297 297 298 298 298 298 298 297 297 296 296 295 295 294 293 292 291 289 288 287 286 285 284 282 281 281 280 280 279 279 278 278
263 265 267 269 270 272 273 273 274 274 275 276 277 278 279 280 281 282 284 285 286 287 288 289 290 291 292 293 294 294 294 295 294 294 294 294 295 296 296 297 298 298 298 298 298 297 297 297 296 296 295 295 294 294 293 293 293 292 292 291 290 289 288 287 286 284 283 282 281 280 279 279 278 278
265 267 267 269 270 271 272 273 273 274 275 277 278 279 281 282 284 285 286 287 288 289 290 291 292 292 293 293 294 294 294 294 294 294 295 295 296 297 297 297 297 297 297 297 297 296 296 295 295 294 294 294 294 294 294 294 294 294 293 293 292 291 290 289 288 286 285 284 283 282 281 280 279 279
266 266 267 268 269 270 271 272 274 275 277 278 280 282 283 285 286 287 288 289 289 290 291 292 292 292 292 292 292 292 293 293 294 294 295 296 296 297 297 297 297 296 296 296 296 296 296 296 296 296 296 296 296 296 296 295 295 294 293 292 292 291 290 289 287 286 285 284 283 282 282 281 281 282
265 265 266 267 268 270 272 274 276 277 279 281 282 284 285 287 288 289 289 290 290 290 291 291 291 292 292 292 292 292 293 293 294 295 296 296 297 297 297 296 296 296 296 296 296 296 297 297 297 297 297 297 297 296 296 295 295 294 294 294 293 292 292 291 289 288 286 285 284 283 282 281 282 282
263 264 266 267 269 272 274 276 277 279 281 282 284 285 287 288 289 289 290 290 290 290 291 291 291 291 292 292 293 293 294 295 296 296 297 297 297 297 297 296 296 296 296 296 296 297 297 297 297 297 297 297 297 297 297 296 296 297 297 296 295 295 295 294 293 291 290 288 287 284 282 282 282 282
264 266 268 270 273 274 276 277 279 280 282 284 285 287 288 289 289 290 290 290 291 291 291 292 292 293 293 294 294 295 296 296 297 297 297 297 297 297 297 297 297 297 297 297 297 297 297 298 298 298 298 298 298 298 298 298 298 298 298 298 297 297 297 296 295 294 293 292 290 288 286 285 285 286
267 269 271 272 274 275 277 278 280 282 284 285 286 287 288 288 289 290 291 291 292 292 293 293 294 295 295 295 296 297 297 298 298 298 298 298 297 297 297 297 297 297 297 298 298 298 299 299 300 300 300 300 300 300 300 300 299 299 298 298 297 296 295 296 296 295 294 294 294 293 291 289 289 291
269 270 272 273 275 277 279 281 282 283 284 284 285 286 287 288 289 290 291 292 293 294 294 295 295 296 297 298 299 299 300 300 299 299 299 299 298 299 299 299 299 299 299 300 300 301 301 301 302 303 303 304 303 302 300 299 299 299 299 299 297 292 289 290 292 292 292 293 293 293 292 291 291 295
270 272 274 276 278 279 280 281 282 283 283 284 285 286 288 289 290 291 292 293 294 294 295 296 297 298 299 301 301 301 301 301 301 300 300 300 301 301 301 301 302 302 302 302 303 303 304 305 306 308 308 307 306 304 303 301 299 298 298 299 298 292 285 282 284 287 288 289 290 291 291 291 293 297
271 272 274 276 277 278 279 280 281 283 284 285 286 288 289 290 292 293 294 294 295 296 296 298 299 301 302 302 302 302 302 302 302 302 302 302 303 303 304 304 304 304 304 304 305 305 306 309 311 312 311 311 310 309 308 304 299 296 296 297 297 293 284 279 279 282 285 286 289 290 290 290 293 296
271 272 273 274 275 276 278 280 281 283 285 287 288 290 291 293 293 294 295 295 296 298 299 300 302 302 303 303 303 303 303 303 303 304 304 304 305 305 306 306 306 306 306 306 305 307 309 313 315 316 315 315 314 314 312 308 303 299 298 297 296 293 286 278 276 278 281 283 285 287 287 287 289 292
270 271 272 273 275 277 279 281 283 285 287 289 291 292 293 293 294 294 295 296 298 299 301 302 303 303 304 304 304 304 304 304 304 305 305 306 307 308 308 308 308 308 306 305 306 308 312 315 318 319 318 316 316 316 316 313 310 307 304 301 299 296 290 282 277 278 280 282 283 283 283 283 284 287
270 271 273 275 277 279 281 283 285 287 289 290 291 292 292 293 294 295 296 297 299 301 303 304 305 306 307 307 306 306 305 305 306 307 308 308 309 310 311 311 310 308 306 305 306 309 312 316 319 321 320 316 315 317 319 317 315 313 310 306 302 299 295 290 285 283 283 284 284 283 280 279 279 281
271 273 275 277 279 282 283 285 287 288 289 290 290 291 291 292 294 295 297 300 302 305 307 308 309 309 309 309 308 307 307 307 308 309 311 312 312 313 314 314 312 308 304 303 305 308 312 316 320 322 322 318 316 318 321 320 317 314 312 309 305 302 298 295 293 290 289 289 289 287 282 278 276 276